owner,sensor,date,latitude,longitude,vertical_datum,wind_speed,wind_to_direction,wind_speed_of_gust,qcFlag 
ADCP,ioos:station:wmo:42887:1,2009-11-01T00:00:00Z,28.1910,-88.4960,48.2,10.7,25.0,99.0,'11111222,11111222,11144222' 
ADCP,ioos:station:wmo:42887:1,2009-11-01T00:20:00Z,28.1910,-88.4960,48.2,9.7,11.0,99.0,'11111222,11111222,11144222' 
ADCP,ioos:station:wmo:42887:1,2009-11-01T00:40:00Z,28.1910,-88.4960,48.2,10.7,16.0,99.0,'11111222,11111222,11144222' 
ADCP,ioos:station:wmo:42887:1,2009-11-01T01:00:00Z,28.1910,-88.4960,48.2,11.8,16.0,99.0,'11111222,11111222,11144222' 
ADCP,ioos:station:wmo:42887:1,2009-11-01T01:20:00Z,28.1910,-88.4960,48.2,12.3,19.0,99.0,'11111222,11111222,11144222' 
ADCP,ioos:station:wmo:42887:1,2009-11-01T01:40:00Z,28.1910,-88.4960,48.2,11.1,15.0,99.0,'11111222,11111222,11144222' 
ADCP,ioos:station:wmo:42887:1,2009-11-01T02:00:00Z,28.1910,-88.4960,48.2,10.8,14.0,99.0,'11111222,11111222,11144222' 
ADCP,ioos:station:wmo:42887:1,2009-11-01T02:20:00Z,28.1910,-88.4960,48.2,9.2,17.0,99.0,'11111222,11111222,11144222' 
ADCP,ioos:station:wmo:42887:1,2009-11-01T02:40:00Z,28.1910,-88.4960,48.2,11.0,19.0,99.0,'11111222,11111222,11144222' 
ADCP,ioos:station:wmo:42887:1,2009-11-01T03:00:00Z,28.1910,-88.4960,48.2,11.6,13.0,99.0,'11111222,11111222,11144222' 
ADCP,ioos:station:wmo:42887:1,2009-11-01T03:20:00Z,28.1910,-88.4960,48.2,11.5,14.0,99.0,'11111222,11111222,11144222' 
ADCP,ioos:station:wmo:42887:1,2009-11-01T03:40:00Z,28.1910,-88.4960,48.2,9.2,25.0,99.0,'11111222,11111222,11144222' 
ADCP,ioos:station:wmo:42887:1,2009-11-01T04:00:00Z,28.1910,-88.4960,48.2,9.2,16.0,99.0,'11111222,11111222,11144222' 
ADCP,ioos:station:wmo:42887:1,2009-11-01T04:20:00Z,28.1910,-88.4960,48.2,9.5,30.0,99.0,'11111222,11111222,11144222' 
ADCP,ioos:station:wmo:42887:1,2009-11-01T04:40:00Z,28.1910,-88.4960,48.2,8.7,20.0,99.0,'11111222,11111222,11144222' 
ADCP,ioos:station:wmo:42887:1,2009-11-01T05:00:00Z,28.1910,-88.4960,48.2,9.2,27.0,99.0,'11111222,11111222,11144222' 
ADCP,ioos:station:wmo:42887:1,2009-11-01T05:20:00Z,28.1910,-88.4960,48.2,7.2,25.0,99.0,'11111222,11111222,11144222' 
ADCP,ioos:station:wmo:42887:1,2009-11-01T05:40:00Z,28.1910,-88.4960,48.2,8.6,32.0,99.0,'11111222,11111222,11144222' 
ADCP,ioos:station:wmo:42887:1,2009-11-01T06:00:00Z,28.1910,-88.4960,48.2,6.3,28.0,99.0,'11111222,11111222,11144222' 
ADCP,ioos:station:wmo:42887:1,2009-11-01T06:20:00Z,28.1910,-88.4960,48.2,8.4,42.0,99.0,'11111222,11111222,11144222' 
ADCP,ioos:station:wmo:42887:1,2009-11-01T06:40:00Z,28.1910,-88.4960,48.2,8.0,20.0,99.0,'11111222,11111222,11144222' 
ADCP,ioos:station:wmo:42887:1,2009-11-01T07:00:00Z,28.1910,-88.4960,48.2,8.8,42.0,99.0,'11111222,11111222,11144222' 
ADCP,ioos:station:wmo:42887:1,2009-11-01T07:20:00Z,28.1910,-88.4960,48.2,7.8,36.0,99.0,'11111222,11111222,11144222' 
ADCP,ioos:station:wmo:42887:1,2009-11-01T07:40:00Z,28.1910,-88.4960,48.2,9.3,40.0,99.0,'11111222,11111222,11144222' 
ADCP,ioos:station:wmo:42887:1,2009-11-01T08:00:00Z,28.1910,-88.4960,48.2,8.6,50.0,99.0,'11111222,11111222,11144222' 
ADCP,ioos:station:wmo:42887:1,2009-11-01T08:20:00Z,28.1910,-88.4960,48.2,9.7,40.0,99.0,'11111222,11111222,11144222' 
ADCP,ioos:station:wmo:42887:1,2009-11-01T08:40:00Z,28.1910,-88.4960,48.2,7.6,43.0,99.0,'11111222,11111222,11144222' 
ADCP,ioos:station:wmo:42887:1,2009-11-01T09:00:00Z,28.1910,-88.4960,48.2,8.7,42.0,99.0,'11111222,11111222,11144222' 
ADCP,ioos:station:wmo:42887:1,2009-11-01T09:20:00Z,28.1910,-88.4960,48.2,7.6,54.0,99.0,'11111222,11111222,11144222' 
ADCP,ioos:station:wmo:42887:1,2009-11-01T09:40:00Z,28.1910,-88.4960,48.2,8.0,39.0,99.0,'11111222,11111222,11144222' 
ADCP,ioos:station:wmo:42887:1,2009-11-01T10:00:00Z,28.1910,-88.4960,48.2,7.0,46.0,99.0,'11111222,11111222,11144222' 
ADCP,ioos:station:wmo:42887:1,2009-11-01T10:20:00Z,28.1910,-88.4960,48.2,7.4,50.0,99.0,'11111222,11111222,11144222' 
ADCP,ioos:station:wmo:42887:1,2009-11-01T10:40:00Z,28.1910,-88.4960,48.2,7.0,56.0,99.0,'11111222,11111222,11144222' 
ADCP,ioos:station:wmo:42887:1,2009-11-01T11:00:00Z,28.1910,-88.4960,48.2,8.4,46.0,99.0,'11111222,11111222,11144222' 
ADCP,ioos:station:wmo:42887:1,2009-11-01T11:20:00Z,28.1910,-88.4960,48.2,7.5,45.0,99.0,'11111222,11111222,11144222' 
ADCP,ioos:station:wmo:42887:1,2009-11-01T11:40:00Z,28.1910,-88.4960,48.2,7.4,37.0,99.0,'11111222,11111222,11144222' 
ADCP,ioos:station:wmo:42887:1,2009-11-01T12:00:00Z,28.1910,-88.4960,48.2,8.3,47.0,99.0,'11111222,11111222,11144222' 
ADCP,ioos:station:wmo:42887:1,2009-11-01T12:20:00Z,28.1910,-88.4960,48.2,6.7,40.0,99.0,'11111222,11111222,11144222' 
ADCP,ioos:station:wmo:42887:1,2009-11-01T12:40:00Z,28.1910,-88.4960,48.2,8.3,42.0,99.0,'11111222,11111222,11144222' 
ADCP,ioos:station:wmo:42887:1,2009-11-01T13:00:00Z,28.1910,-88.4960,48.2,7.2,52.0,99.0,'11111222,11111222,11144222' 
ADCP,ioos:station:wmo:42887:1,2009-11-01T13:20:00Z,28.1910,-88.4960,48.2,5.8,55.0,99.0,'11111222,11111222,11144222' 
ADCP,ioos:station:wmo:42887:1,2009-11-01T13:40:00Z,28.1910,-88.4960,48.2,7.6,51.0,99.0,'11111222,11111222,11144222' 
ADCP,ioos:station:wmo:42887:1,2009-11-01T14:00:00Z,28.1910,-88.4960,48.2,7.8,53.0,99.0,'11111222,11111222,11144222' 
ADCP,ioos:station:wmo:42887:1,2009-11-01T14:20:00Z,28.1910,-88.4960,48.2,7.0,43.0,99.0,'11111222,11111222,11144222' 
ADCP,ioos:station:wmo:42887:1,2009-11-01T14:40:00Z,28.1910,-88.4960,48.2,5.4,55.0,99.0,'11111222,11111222,11144222' 
ADCP,ioos:station:wmo:42887:1,2009-11-01T15:00:00Z,28.1910,-88.4960,48.2,7.2,41.0,99.0,'11111222,11111222,11144222' 
ADCP,ioos:station:wmo:42887:1,2009-11-01T15:20:00Z,28.1910,-88.4960,48.2,5.5,58.0,99.0,'11111222,11111222,11144222' 
ADCP,ioos:station:wmo:42887:1,2009-11-01T15:40:00Z,28.1910,-88.4960,48.2,6.7,58.0,99.0,'11111222,11111222,11144222' 
ADCP,ioos:station:wmo:42887:1,2009-11-01T16:00:00Z,28.1910,-88.4960,48.2,6.4,44.0,99.0,'11111222,11111222,11144222' 
ADCP,ioos:station:wmo:42887:1,2009-11-01T16:20:00Z,28.1910,-88.4960,48.2,5.9,52.0,99.0,'11111222,11111222,11144222' 
ADCP,ioos:station:wmo:42887:1,2009-11-01T16:40:00Z,28.1910,-88.4960,48.2,4.8,38.0,99.0,'11111222,11111222,11144222' 
ADCP,ioos:station:wmo:42887:1,2009-11-01T17:00:00Z,28.1910,-88.4960,48.2,5.4,59.0,99.0,'11111222,11111222,11144222' 
ADCP,ioos:station:wmo:42887:1,2009-11-01T17:20:00Z,28.1910,-88.4960,48.2,5.1,48.0,99.0,'11111222,11111222,11144222' 
ADCP,ioos:station:wmo:42887:1,2009-11-01T17:40:00Z,28.1910,-88.4960,48.2,5.4,25.0,99.0,'11111222,11111222,11144222' 
ADCP,ioos:station:wmo:42887:1,2009-11-01T18:00:00Z,28.1910,-88.4960,48.2,6.0,37.0,99.0,'11111222,11111222,11144222' 
ADCP,ioos:station:wmo:42887:1,2009-11-01T18:20:00Z,28.1910,-88.4960,48.2,7.1,44.0,99.0,'11111222,11111222,11144222' 
ADCP,ioos:station:wmo:42887:1,2009-11-01T18:40:00Z,28.1910,-88.4960,48.2,5.4,24.0,99.0,'11111222,11111222,11144222' 
ADCP,ioos:station:wmo:42887:1,2009-11-01T19:00:00Z,28.1910,-88.4960,48.2,5.9,32.0,99.0,'11111222,11111222,11144222' 
ADCP,ioos:station:wmo:42887:1,2009-11-01T19:20:00Z,28.1910,-88.4960,48.2,6.6,53.0,99.0,'11111222,11111222,11144222' 
ADCP,ioos:station:wmo:42887:1,2009-11-01T19:40:00Z,28.1910,-88.4960,48.2,5.2,43.0,99.0,'11111222,11111222,11144222' 
ADCP,ioos:station:wmo:42887:1,2009-11-01T20:00:00Z,28.1910,-88.4960,48.2,5.8,30.0,99.0,'11111222,11111222,11144222' 
ADCP,ioos:station:wmo:42887:1,2009-11-01T20:20:00Z,28.1910,-88.4960,48.2,4.9,41.0,99.0,'11111222,11111222,11144222' 
ADCP,ioos:station:wmo:42887:1,2009-11-01T20:40:00Z,28.1910,-88.4960,48.2,5.6,32.0,99.0,'11111222,11111222,11144222' 
ADCP,ioos:station:wmo:42887:1,2009-11-01T21:00:00Z,28.1910,-88.4960,48.2,6.6,31.0,99.0,'11111222,11111222,11144222' 
ADCP,ioos:station:wmo:42887:1,2009-11-01T21:20:00Z,28.1910,-88.4960,48.2,5.5,27.0,99.0,'11111222,11111222,11144222' 
ADCP,ioos:station:wmo:42887:1,2009-11-01T21:40:00Z,28.1910,-88.4960,48.2,6.2,18.0,99.0,'11111222,11111222,11144222' 
ADCP,ioos:station:wmo:42887:1,2009-11-01T22:00:00Z,28.1910,-88.4960,48.2,6.2,22.0,99.0,'11111222,11111222,11144222' 
ADCP,ioos:station:wmo:42887:1,2009-11-01T22:20:00Z,28.1910,-88.4960,48.2,5.6,20.0,99.0,'11111222,11111222,11144222' 
ADCP,ioos:station:wmo:42887:1,2009-11-01T22:40:00Z,28.1910,-88.4960,48.2,6.9,42.0,99.0,'11111222,11111222,11144222' 
ADCP,ioos:station:wmo:42887:1,2009-11-01T23:00:00Z,28.1910,-88.4960,48.2,7.6,31.0,99.0,'11111222,11111222,11144222' 
ADCP,ioos:station:wmo:42887:1,2009-11-01T23:20:00Z,28.1910,-88.4960,48.2,5.7,23.0,99.0,'11111222,11111222,11144222' 
ADCP,ioos:station:wmo:42887:1,2009-11-01T23:40:00Z,28.1910,-88.4960,48.2,6.9,25.0,99.0,'11111222,11111222,11144222' 
ADCP,ioos:station:wmo:42887:1,2009-11-02T00:00:00Z,28.1910,-88.4960,48.2,5.6,32.0,99.0,'11111222,11111222,11144222' 
ADCP,ioos:station:wmo:42887:1,2009-11-02T00:20:00Z,28.1910,-88.4960,48.2,6.0,38.0,99.0,'11111222,11111222,11144222' 
ADCP,ioos:station:wmo:42887:1,2009-11-02T00:40:00Z,28.1910,-88.4960,48.2,6.6,36.0,99.0,'11111222,11111222,11144222' 
ADCP,ioos:station:wmo:42887:1,2009-11-02T01:00:00Z,28.1910,-88.4960,48.2,4.8,51.0,99.0,'11111222,11111222,11144222' 
ADCP,ioos:station:wmo:42887:1,2009-11-02T01:20:00Z,28.1910,-88.4960,48.2,5.4,34.0,99.0,'11111222,11111222,11144222' 
ADCP,ioos:station:wmo:42887:1,2009-11-02T01:40:00Z,28.1910,-88.4960,48.2,5.3,51.0,99.0,'11111222,11111222,11144222' 
ADCP,ioos:station:wmo:42887:1,2009-11-02T02:00:00Z,28.1910,-88.4960,48.2,6.1,42.0,99.0,'11111222,11111222,11144222' 
ADCP,ioos:station:wmo:42887:1,2009-11-02T02:20:00Z,28.1910,-88.4960,48.2,5.6,39.0,99.0,'11111222,11111222,11144222' 
ADCP,ioos:station:wmo:42887:1,2009-11-02T02:40:00Z,28.1910,-88.4960,48.2,5.3,25.0,99.0,'11111222,11111222,11144222' 
ADCP,ioos:station:wmo:42887:1,2009-11-02T03:00:00Z,28.1910,-88.4960,48.2,5.9,34.0,99.0,'11111222,11111222,11144222' 
ADCP,ioos:station:wmo:42887:1,2009-11-02T03:20:00Z,28.1910,-88.4960,48.2,4.9,34.0,99.0,'11111222,11111222,11144222' 
ADCP,ioos:station:wmo:42887:1,2009-11-02T03:40:00Z,28.1910,-88.4960,48.2,5.2,22.0,99.0,'11111222,11111222,11144222' 
ADCP,ioos:station:wmo:42887:1,2009-11-02T04:00:00Z,28.1910,-88.4960,48.2,4.7,40.0,99.0,'11111222,11111222,11144222' 
ADCP,ioos:station:wmo:42887:1,2009-11-02T04:20:00Z,28.1910,-88.4960,48.2,4.9,42.0,99.0,'11111222,11111222,11144222' 
ADCP,ioos:station:wmo:42887:1,2009-11-02T04:40:00Z,28.1910,-88.4960,48.2,6.4,45.0,99.0,'11111222,11111222,11144222' 
ADCP,ioos:station:wmo:42887:1,2009-11-02T05:00:00Z,28.1910,-88.4960,48.2,5.6,34.0,99.0,'11111222,11111222,11144222' 
ADCP,ioos:station:wmo:42887:1,2009-11-02T05:20:00Z,28.1910,-88.4960,48.2,6.2,45.0,99.0,'11111222,11111222,11144222' 
ADCP,ioos:station:wmo:42887:1,2009-11-02T05:40:00Z,28.1910,-88.4960,48.2,5.5,51.0,99.0,'11111222,11111222,11144222' 
ADCP,ioos:station:wmo:42887:1,2009-11-02T06:00:00Z,28.1910,-88.4960,48.2,5.1,54.0,99.0,'11111222,11111222,11144222' 
ADCP,ioos:station:wmo:42887:1,2009-11-02T06:20:00Z,28.1910,-88.4960,48.2,4.9,39.0,99.0,'11111222,11111222,11144222' 
ADCP,ioos:station:wmo:42887:1,2009-11-02T06:40:00Z,28.1910,-88.4960,48.2,6.0,31.0,99.0,'11111222,11111222,11144222' 
ADCP,ioos:station:wmo:42887:1,2009-11-02T07:00:00Z,28.1910,-88.4960,48.2,6.0,40.0,99.0,'11111222,11111222,11144222' 
ADCP,ioos:station:wmo:42887:1,2009-11-02T07:20:00Z,28.1910,-88.4960,48.2,5.2,33.0,99.0,'11111222,11111222,11144222' 
ADCP,ioos:station:wmo:42887:1,2009-11-02T07:40:00Z,28.1910,-88.4960,48.2,5.3,35.0,99.0,'11111222,11111222,11144222' 
ADCP,ioos:station:wmo:42887:1,2009-11-02T08:00:00Z,28.1910,-88.4960,48.2,5.2,26.0,99.0,'11111222,11111222,11144222' 
ADCP,ioos:station:wmo:42887:1,2009-11-02T08:20:00Z,28.1910,-88.4960,48.2,5.9,42.0,99.0,'11111222,11111222,11144222' 
ADCP,ioos:station:wmo:42887:1,2009-11-02T08:40:00Z,28.1910,-88.4960,48.2,5.9,22.0,99.0,'11111222,11111222,11144222' 
ADCP,ioos:station:wmo:42887:1,2009-11-02T09:00:00Z,28.1910,-88.4960,48.2,5.5,46.0,99.0,'11111222,11111222,11144222' 
ADCP,ioos:station:wmo:42887:1,2009-11-02T09:20:00Z,28.1910,-88.4960,48.2,4.7,31.0,99.0,'11111222,11111222,11144222' 
ADCP,ioos:station:wmo:42887:1,2009-11-02T09:40:00Z,28.1910,-88.4960,48.2,5.5,34.0,99.0,'11111222,11111222,11144222' 
ADCP,ioos:station:wmo:42887:1,2009-11-02T10:00:00Z,28.1910,-88.4960,48.2,4.9,49.0,99.0,'11111222,11111222,11144222' 
ADCP,ioos:station:wmo:42887:1,2009-11-02T10:20:00Z,28.1910,-88.4960,48.2,4.9,39.0,99.0,'11111222,11111222,11144222' 
ADCP,ioos:station:wmo:42887:1,2009-11-02T10:40:00Z,28.1910,-88.4960,48.2,5.0,54.0,99.0,'11111222,11111222,11144222' 
ADCP,ioos:station:wmo:42887:1,2009-11-02T11:00:00Z,28.1910,-88.4960,48.2,5.6,42.0,99.0,'11111222,11111222,11144222' 
ADCP,ioos:station:wmo:42887:1,2009-11-02T11:20:00Z,28.1910,-88.4960,48.2,6.1,38.0,99.0,'11111222,11111222,11144222' 
ADCP,ioos:station:wmo:42887:1,2009-11-02T11:40:00Z,28.1910,-88.4960,48.2,5.3,45.0,99.0,'11111222,11111222,11144222' 
ADCP,ioos:station:wmo:42887:1,2009-11-02T12:20:00Z,28.1910,-88.4960,48.2,5.8,46.0,99.0,'11111222,11111222,11144222' 
ADCP,ioos:station:wmo:42887:1,2009-11-02T12:40:00Z,28.1910,-88.4960,48.2,4.8,27.0,99.0,'11111222,11111222,11144222' 
ADCP,ioos:station:wmo:42887:1,2009-11-02T13:00:00Z,28.1910,-88.4960,48.2,5.3,42.0,99.0,'11111222,11111222,11144222' 
ADCP,ioos:station:wmo:42887:1,2009-11-02T13:20:00Z,28.1910,-88.4960,48.2,5.3,39.0,99.0,'11111222,11111222,11144222' 
ADCP,ioos:station:wmo:42887:1,2009-11-02T13:40:00Z,28.1910,-88.4960,48.2,4.3,44.0,99.0,'11111222,11111222,11144222' 
ADCP,ioos:station:wmo:42887:1,2009-11-02T14:00:00Z,28.1910,-88.4960,48.2,4.3,50.0,99.0,'11111222,11111222,11144222' 
ADCP,ioos:station:wmo:42887:1,2009-11-02T14:20:00Z,28.1910,-88.4960,48.2,5.6,38.0,99.0,'11111222,11111222,11144222' 
ADCP,ioos:station:wmo:42887:1,2009-11-02T14:40:00Z,28.1910,-88.4960,48.2,5.4,43.0,99.0,'11111222,11111222,11144222' 
ADCP,ioos:station:wmo:42887:1,2009-11-02T15:00:00Z,28.1910,-88.4960,48.2,4.9,41.0,99.0,'11111222,11111222,11144222' 
ADCP,ioos:station:wmo:42887:1,2009-11-02T15:20:00Z,28.1910,-88.4960,48.2,4.9,29.0,99.0,'11111222,11111222,11144222' 
ADCP,ioos:station:wmo:42887:1,2009-11-02T15:40:00Z,28.1910,-88.4960,48.2,5.0,44.0,99.0,'11111222,11111222,11144222' 
ADCP,ioos:station:wmo:42887:1,2009-11-02T16:00:00Z,28.1910,-88.4960,48.2,4.6,49.0,99.0,'11111222,11111222,11144222' 
ADCP,ioos:station:wmo:42887:1,2009-11-02T16:20:00Z,28.1910,-88.4960,48.2,4.5,44.0,99.0,'11111222,11111222,11144222' 
ADCP,ioos:station:wmo:42887:1,2009-11-02T16:40:00Z,28.1910,-88.4960,48.2,4.4,38.0,99.0,'11111222,11111222,11144222' 
ADCP,ioos:station:wmo:42887:1,2009-11-02T17:00:00Z,28.1910,-88.4960,48.2,4.4,35.0,99.0,'11111222,11111222,11144222' 
ADCP,ioos:station:wmo:42887:1,2009-11-02T17:20:00Z,28.1910,-88.4960,48.2,3.7,37.0,99.0,'11111222,11111222,11144222' 
ADCP,ioos:station:wmo:42887:1,2009-11-02T17:40:00Z,28.1910,-88.4960,48.2,4.0,46.0,99.0,'11111222,11111222,11144222' 
ADCP,ioos:station:wmo:42887:1,2009-11-02T18:00:00Z,28.1910,-88.4960,48.2,4.9,41.0,99.0,'11111222,11111222,11144222' 
ADCP,ioos:station:wmo:42887:1,2009-11-02T18:20:00Z,28.1910,-88.4960,48.2,4.5,37.0,99.0,'11111222,11111222,11144222' 
ADCP,ioos:station:wmo:42887:1,2009-11-02T18:40:00Z,28.1910,-88.4960,48.2,3.7,27.0,99.0,'11111222,11111222,11144222' 
ADCP,ioos:station:wmo:42887:1,2009-11-02T19:00:00Z,28.1910,-88.4960,48.2,3.8,31.0,99.0,'11111222,11111222,11144222' 
ADCP,ioos:station:wmo:42887:1,2009-11-02T19:20:00Z,28.1910,-88.4960,48.2,3.9,14.0,99.0,'11111222,11111222,11144222' 
ADCP,ioos:station:wmo:42887:1,2009-11-02T19:40:00Z,28.1910,-88.4960,48.2,5.2,17.0,99.0,'11111222,11111222,11144222' 
ADCP,ioos:station:wmo:42887:1,2009-11-02T20:00:00Z,28.1910,-88.4960,48.2,3.3,41.0,99.0,'11111222,11111222,11144222' 
ADCP,ioos:station:wmo:42887:1,2009-11-02T20:20:00Z,28.1910,-88.4960,48.2,4.7,45.0,99.0,'11111222,11111222,11144222' 
ADCP,ioos:station:wmo:42887:1,2009-11-02T20:40:00Z,28.1910,-88.4960,48.2,4.4,24.0,99.0,'11111222,11111222,11144222' 
ADCP,ioos:station:wmo:42887:1,2009-11-02T21:00:00Z,28.1910,-88.4960,48.2,5.1,46.0,99.0,'11111222,11111222,11144222' 
ADCP,ioos:station:wmo:42887:1,2009-11-02T21:20:00Z,28.1910,-88.4960,48.2,5.0,39.0,99.0,'11111222,11111222,11144222' 
ADCP,ioos:station:wmo:42887:1,2009-11-02T21:40:00Z,28.1910,-88.4960,48.2,4.6,26.0,99.0,'11111222,11111222,11144222' 
ADCP,ioos:station:wmo:42887:1,2009-11-02T22:00:00Z,28.1910,-88.4960,48.2,4.1,22.0,99.0,'11111222,11111222,11144222' 
ADCP,ioos:station:wmo:42887:1,2009-11-02T22:20:00Z,28.1910,-88.4960,48.2,4.1,25.0,99.0,'11111222,11111222,11144222' 
ADCP,ioos:station:wmo:42887:1,2009-11-02T22:40:00Z,28.1910,-88.4960,48.2,5.3,30.0,99.0,'11111222,11111222,11144222' 
ADCP,ioos:station:wmo:42887:1,2009-11-02T23:00:00Z,28.1910,-88.4960,48.2,5.6,39.0,99.0,'11111222,11111222,11144222' 
ADCP,ioos:station:wmo:42887:1,2009-11-02T23:20:00Z,28.1910,-88.4960,48.2,5.7,42.0,99.0,'11111222,11111222,11144222' 
ADCP,ioos:station:wmo:42887:1,2009-11-02T23:40:00Z,28.1910,-88.4960,48.2,4.8,36.0,99.0,'11111222,11111222,11144222' 
ADCP,ioos:station:wmo:42887:1,2009-11-03T00:00:00Z,28.1910,-88.4960,48.2,4.7,32.0,99.0,'11111222,11111222,11144222' 
ADCP,ioos:station:wmo:42887:1,2009-11-03T00:20:00Z,28.1910,-88.4960,48.2,5.8,40.0,99.0,'11111222,11111222,11144222' 
ADCP,ioos:station:wmo:42887:1,2009-11-03T00:40:00Z,28.1910,-88.4960,48.2,6.3,46.0,99.0,'11111222,11111222,11144222' 
ADCP,ioos:station:wmo:42887:1,2009-11-03T01:00:00Z,28.1910,-88.4960,48.2,5.6,40.0,99.0,'11111222,11111222,11144222' 
ADCP,ioos:station:wmo:42887:1,2009-11-03T01:20:00Z,28.1910,-88.4960,48.2,6.3,42.0,99.0,'11111222,11111222,11144222' 
ADCP,ioos:station:wmo:42887:1,2009-11-03T01:40:00Z,28.1910,-88.4960,48.2,4.5,42.0,99.0,'11111222,11111222,11144222' 
ADCP,ioos:station:wmo:42887:1,2009-11-03T02:00:00Z,28.1910,-88.4960,48.2,5.7,63.0,99.0,'11111222,11111222,11144222' 
ADCP,ioos:station:wmo:42887:1,2009-11-03T02:20:00Z,28.1910,-88.4960,48.2,6.1,59.0,99.0,'11111222,11111222,11144222' 
ADCP,ioos:station:wmo:42887:1,2009-11-03T02:40:00Z,28.1910,-88.4960,48.2,6.3,60.0,99.0,'11111222,11111222,11144222' 
ADCP,ioos:station:wmo:42887:1,2009-11-03T03:00:00Z,28.1910,-88.4960,48.2,5.8,58.0,99.0,'11111222,11111222,11144222' 
ADCP,ioos:station:wmo:42887:1,2009-11-03T03:20:00Z,28.1910,-88.4960,48.2,5.9,65.0,99.0,'11111222,11111222,11144222' 
ADCP,ioos:station:wmo:42887:1,2009-11-03T03:40:00Z,28.1910,-88.4960,48.2,6.1,57.0,99.0,'11111222,11111222,11144222' 
ADCP,ioos:station:wmo:42887:1,2009-11-03T04:00:00Z,28.1910,-88.4960,48.2,4.9,53.0,99.0,'11111222,11111222,11144222' 
ADCP,ioos:station:wmo:42887:1,2009-11-03T04:20:00Z,28.1910,-88.4960,48.2,6.9,62.0,99.0,'11111222,11111222,11144222' 
ADCP,ioos:station:wmo:42887:1,2009-11-03T04:40:00Z,28.1910,-88.4960,48.2,6.5,62.0,99.0,'11111222,11111222,11144222' 
ADCP,ioos:station:wmo:42887:1,2009-11-03T05:00:00Z,28.1910,-88.4960,48.2,5.9,73.0,99.0,'11111222,11111222,11144222' 
ADCP,ioos:station:wmo:42887:1,2009-11-03T05:20:00Z,28.1910,-88.4960,48.2,7.6,57.0,99.0,'11111222,11111222,11144222' 
ADCP,ioos:station:wmo:42887:1,2009-11-03T05:40:00Z,28.1910,-88.4960,48.2,7.2,64.0,99.0,'11111222,11111222,11144222' 
ADCP,ioos:station:wmo:42887:1,2009-11-03T06:00:00Z,28.1910,-88.4960,48.2,7.2,62.0,99.0,'11111222,11111222,11144222' 
ADCP,ioos:station:wmo:42887:1,2009-11-03T06:20:00Z,28.1910,-88.4960,48.2,6.6,61.0,99.0,'11111222,11111222,11144222' 
ADCP,ioos:station:wmo:42887:1,2009-11-03T06:40:00Z,28.1910,-88.4960,48.2,5.0,75.0,99.0,'11111222,11111222,11144222' 
ADCP,ioos:station:wmo:42887:1,2009-11-03T07:00:00Z,28.1910,-88.4960,48.2,6.4,64.0,99.0,'11111222,11111222,11144222' 
ADCP,ioos:station:wmo:42887:1,2009-11-03T07:20:00Z,28.1910,-88.4960,48.2,6.1,60.0,99.0,'11111222,11111222,11144222' 
ADCP,ioos:station:wmo:42887:1,2009-11-03T07:40:00Z,28.1910,-88.4960,48.2,5.5,51.0,99.0,'11111222,11111222,11144222' 
ADCP,ioos:station:wmo:42887:1,2009-11-03T08:00:00Z,28.1910,-88.4960,48.2,6.7,45.0,99.0,'11111222,11111222,11144222' 
ADCP,ioos:station:wmo:42887:1,2009-11-03T08:20:00Z,28.1910,-88.4960,48.2,6.3,65.0,99.0,'11111222,11111222,11144222' 
ADCP,ioos:station:wmo:42887:1,2009-11-03T08:40:00Z,28.1910,-88.4960,48.2,5.5,63.0,99.0,'11111222,11111222,11144222' 
ADCP,ioos:station:wmo:42887:1,2009-11-03T09:00:00Z,28.1910,-88.4960,48.2,6.5,56.0,99.0,'11111222,11111222,11144222' 
ADCP,ioos:station:wmo:42887:1,2009-11-03T09:20:00Z,28.1910,-88.4960,48.2,5.8,50.0,99.0,'11111222,11111222,11144222' 
ADCP,ioos:station:wmo:42887:1,2009-11-03T09:40:00Z,28.1910,-88.4960,48.2,6.5,50.0,99.0,'11111222,11111222,11144222' 
ADCP,ioos:station:wmo:42887:1,2009-11-03T10:00:00Z,28.1910,-88.4960,48.2,6.5,59.0,99.0,'11111222,11111222,11144222' 
ADCP,ioos:station:wmo:42887:1,2009-11-03T10:20:00Z,28.1910,-88.4960,48.2,7.3,59.0,99.0,'11111222,11111222,11144222' 
ADCP,ioos:station:wmo:42887:1,2009-11-03T10:40:00Z,28.1910,-88.4960,48.2,5.3,52.0,99.0,'11111222,11111222,11144222' 
ADCP,ioos:station:wmo:42887:1,2009-11-03T11:00:00Z,28.1910,-88.4960,48.2,5.5,67.0,99.0,'11111222,11111222,11144222' 
ADCP,ioos:station:wmo:42887:1,2009-11-03T11:20:00Z,28.1910,-88.4960,48.2,5.8,64.0,99.0,'11111222,11111222,11144222' 
ADCP,ioos:station:wmo:42887:1,2009-11-03T11:40:00Z,28.1910,-88.4960,48.2,7.1,66.0,99.0,'11111222,11111222,11144222' 
ADCP,ioos:station:wmo:42887:1,2009-11-03T12:00:00Z,28.1910,-88.4960,48.2,7.1,84.0,99.0,'11111222,11111222,11144222' 
ADCP,ioos:station:wmo:42887:1,2009-11-03T12:20:00Z,28.1910,-88.4960,48.2,7.0,69.0,99.0,'11111222,11111222,11144222' 
ADCP,ioos:station:wmo:42887:1,2009-11-03T12:40:00Z,28.1910,-88.4960,48.2,7.2,84.0,99.0,'11111222,11111222,11144222' 
ADCP,ioos:station:wmo:42887:1,2009-11-03T13:00:00Z,28.1910,-88.4960,48.2,8.7,68.0,99.0,'11111222,11111222,11144222' 
ADCP,ioos:station:wmo:42887:1,2009-11-03T13:20:00Z,28.1910,-88.4960,48.2,7.7,71.0,99.0,'11111222,11111222,11144222' 
ADCP,ioos:station:wmo:42887:1,2009-11-03T13:40:00Z,28.1910,-88.4960,48.2,7.6,34.0,99.0,'11111222,11111222,11144222' 
ADCP,ioos:station:wmo:42887:1,2009-11-03T14:00:00Z,28.1910,-88.4960,48.2,7.7,49.0,99.0,'11111222,11111222,11144222' 
ADCP,ioos:station:wmo:42887:1,2009-11-03T14:20:00Z,28.1910,-88.4960,48.2,7.1,68.0,99.0,'11111222,11111222,11144222' 
ADCP,ioos:station:wmo:42887:1,2009-11-03T14:40:00Z,28.1910,-88.4960,48.2,7.5,75.0,99.0,'11111222,11111222,11144222' 
ADCP,ioos:station:wmo:42887:1,2009-11-03T15:00:00Z,28.1910,-88.4960,48.2,8.2,78.0,99.0,'11111222,11111222,11144222' 
ADCP,ioos:station:wmo:42887:1,2009-11-03T15:20:00Z,28.1910,-88.4960,48.2,5.9,81.0,99.0,'11111222,11111222,11144222' 
ADCP,ioos:station:wmo:42887:1,2009-11-03T15:40:00Z,28.1910,-88.4960,48.2,7.7,72.0,99.0,'11111222,11111222,11144222' 
ADCP,ioos:station:wmo:42887:1,2009-11-03T16:00:00Z,28.1910,-88.4960,48.2,8.0,69.0,99.0,'11111222,11111222,11144222' 
ADCP,ioos:station:wmo:42887:1,2009-11-03T16:20:00Z,28.1910,-88.4960,48.2,7.9,70.0,99.0,'11111222,11111222,11144222' 
ADCP,ioos:station:wmo:42887:1,2009-11-03T16:40:00Z,28.1910,-88.4960,48.2,8.0,56.0,99.0,'11111222,11111222,11144222' 
ADCP,ioos:station:wmo:42887:1,2009-11-03T17:00:00Z,28.1910,-88.4960,48.2,7.5,66.0,99.0,'11111222,11111222,11144222' 
ADCP,ioos:station:wmo:42887:1,2009-11-03T17:20:00Z,28.1910,-88.4960,48.2,8.0,64.0,99.0,'11111222,11111222,11144222' 
ADCP,ioos:station:wmo:42887:1,2009-11-03T17:40:00Z,28.1910,-88.4960,48.2,6.9,62.0,99.0,'11111222,11111222,11144222' 
ADCP,ioos:station:wmo:42887:1,2009-11-03T18:00:00Z,28.1910,-88.4960,48.2,7.9,48.0,99.0,'11111222,11111222,11144222' 
ADCP,ioos:station:wmo:42887:1,2009-11-03T18:20:00Z,28.1910,-88.4960,48.2,8.1,57.0,99.0,'11111222,11111222,11144222' 
ADCP,ioos:station:wmo:42887:1,2009-11-03T18:40:00Z,28.1910,-88.4960,48.2,6.9,54.0,99.0,'11111222,11111222,11144222' 
ADCP,ioos:station:wmo:42887:1,2009-11-03T19:00:00Z,28.1910,-88.4960,48.2,7.7,54.0,99.0,'11111222,11111222,11144222' 
ADCP,ioos:station:wmo:42887:1,2009-11-03T19:20:00Z,28.1910,-88.4960,48.2,8.7,58.0,99.0,'11111222,11111222,11144222' 
ADCP,ioos:station:wmo:42887:1,2009-11-03T19:40:00Z,28.1910,-88.4960,48.2,7.3,57.0,99.0,'11111222,11111222,11144222' 
ADCP,ioos:station:wmo:42887:1,2009-11-03T20:00:00Z,28.1910,-88.4960,48.2,8.7,69.0,99.0,'11111222,11111222,11144222' 